Regional Weather Roundup
Issued by NWS

Home | Current Version | Previous Version | Text Only | Print | Product List | Glossary On
Versions: 1 2 3 4 5 6 7 8 9 10 11 12 13 14 15 16 17 18 19 20 21 22 23 24 25 26 27 28 29 30 31 32 33 34 35 36 37 38 39 40 41 42 43 44 45 46 47 48 49 50
000
ASUS43 KTOP 162359
RWRKS

WEATHER ROUNDUP FOR KANSAS
NATIONAL WEATHER SERVICE GOODLAND KS
600 PM CST SAT DEC 16 2017

NOTE:  "FAIR" INDICATES FEW OR NO CLOUDS BELOW 12,000 FEET WITH NO
SIGNIFICANT WEATHER AND/OR OBSTRUCTIONS TO VISIBILITY.

KSZ001>006-013>018-027>032-041>047-170100-
NORTHWEST KANSAS

CITY           SKY/WX    TMP DP  RH WIND       PRES   REMARKS
GOODLAND       CLEAR     41  18  39 NE13      29.78R
6HR MIN TEMP:  41; 6HR MAX TEMP:  55;

HAYS           CLEAR     44  20  38 SE6       29.78R
HILL CITY      CLEAR     42  19  39 NE12      29.81R
6HR MIN TEMP:  42; 6HR MAX TEMP:  56;

RUSSELL        CLEAR     43  24  47 SE12      29.79R
6HR MIN TEMP:  43; 6HR MAX TEMP:  63;

$$

KSZ061>065-074>080-084>089-170100-
SOUTHWEST KANSAS

CITY           SKY/WX    TMP DP  RH WIND       PRES   REMARKS
DODGE CITY     CLOUDY    52  17  25 S16       29.76R
6HR MIN TEMP:  50; 6HR MAX TEMP:  63;

GARDEN CITY    CLEAR     47  14  26 SE13      29.72R
6HR MIN TEMP:  46; 6HR MAX TEMP:  62;

GREAT BEND     CLOUDY    47  21  35 SE10      29.80R
LIBERAL        CLEAR     51  18  27 S15       29.74R
$$

KSZ066>073-081>083-090>101-170100-
SOUTHEAST KANSAS

CITY           SKY/WX    TMP DP  RH WIND       PRES   REMARKS
CHANUTE        CLOUDY    49  25  39 SE7       29.93S
6HR MIN TEMP:  49; 6HR MAX TEMP:  61;

COFFEYVILLE    CLOUDY    54  26  34 S9        29.95S
6HR MIN TEMP:  54; 6HR MAX TEMP:  61;

HUTCHINSON     CLEAR     53  25  33 S15       29.83R
6HR MIN TEMP:  52; 6HR MAX TEMP:  61;

MEDICINE LODGE   N/A     53  27  36 S16G24    29.82S
NEWTON         CLEAR     52  26  36 S20       29.86R
PARSONS        PTCLDY    54  25  32 S6        29.95S
6HR MIN TEMP:  54; 6HR MAX TEMP:  60;

WICHITA INTL   PTCLDY    55  27  34 S14       29.86R
6HR MIN TEMP:  54; 6HR MAX TEMP:  62;

WICHITA JABRA  PTCLDY    54  26  34 S14G23    29.87R
6HR MIN TEMP:  53; 6HR MAX TEMP:  60;

WICHITA MCCONL PTCLDY    54  24  31 SW17G25   29.86R
WINFIELD       CLOUDY    53  27  36 SE6       29.89F
6HR MIN TEMP:  51; 6HR MAX TEMP:  60;

$$

KSZ007>012-019>026-033>040-048>060-102>105-170100-
NORTHEAST KANSAS

CITY           SKY/WX    TMP DP  RH WIND       PRES   REMARKS
CONCORDIA      CLEAR     45  25  45 E3        29.84R
6HR MIN TEMP:  45; 6HR MAX TEMP:  55;

EMPORIA        CLEAR     48  24  39 S8        29.90R
6HR MIN TEMP:  48; 6HR MAX TEMP:  61;

LAWRENCE       CLEAR     48  25  40 SE7       29.93R
6HR MIN TEMP:  48; 6HR MAX TEMP:  62;

MANHATTAN      CLEAR     46  23  40 CALM      29.87R
6HR MIN TEMP:  44; 6HR MAX TEMP:  63;

OLATHE IND     CLEAR     47  27  45 S9        29.95R
6HR MIN TEMP:  46; 6HR MAX TEMP:  59;

OLATHE EXE     CLEAR     48  27  44 S9        29.94R
6HR MIN TEMP:  48; 6HR MAX TEMP:  58;

SALINA         CLOUDY    46  25  43 SE8       29.85R
6HR MIN TEMP:  46; 6HR MAX TEMP:  62;

TOPEKA BILLARD CLOUDY    51  27  39 S7        29.91R
6HR MIN TEMP:  47; 6HR MAX TEMP:  61;

TOPEKA FORBES  CLEAR     53  26  35 S10       29.91R
6HR MIN TEMP:  52; 6HR MAX TEMP:  62;

$$



USA.gov is the U.S. government's official web portal to all federal, state and local government web resources and services.